[[{"header":{"parameterUnit":"m.s-1","parameterCategory":2,"la1":30.2991,"la2":30.254,"lo1":-89.0895,"lo2":-89.0444,"dy":0.0017,"dx":0.0017,"nx":28,"ny":28,"refTime":"2025-04-04T09:00:00:Z","depth":"0","parameterNumber":2,"parameterNumberName":"U-component_of_CURRENTS"},"data":[0,0,0,0,0,0,0,0,0,0,0,0,0,0,0,0,0,0,0,0,0,0,0,0,0,0,0,0,0,0,0,0,0,0,0,0,0,0,0,0,0,0,0,0,0,0,0,0,0,0,0,0,0,0,0,0,0,0,0.2594,0.2594,0,0.2621,0.2621,0.2621,0.2611,0.2611,0.261,0.261,0.2593,0.2593,0.2593,0,0,0,0,0,0,0,0,0,0,0,0,0,0.2537,0.2538,0.2594,0.2594,0.2595,0.2621,0.2621,0.2621,0.2611,0.2611,0.261,0.261,0.2593,0.2593,0.2593,0,0,0,0,0,0,0,0,0,0,0,0,0,0.2561,0.2538,0.2594,0.2595,0.2595,0.2621,0.2621,0.2621,0.2611,0.2611,0.261,0.261,0.2593,0.2593,0.2593,0.2604,0,0,0.2592,0.2592,0,0,0,0,0,0,0,0,0.2559,0.2562,0.2594,0.2595,0.2595,0.2614,0.2595,0.2614,0.2612,0.2603,0.261,0.2609,0.2598,0.2597,0.2601,0.2603,0.2603,0.2592,0.2592,0.2592,0.2592,0,0,0,0,0,0,0,0.2558,0.2561,0.2602,0.2595,0.2596,0.2595,0.2598,0.2599,0.2601,0.2604,0.2604,0.261,0.2597,0.2601,0.26,0.2602,0.2592,0.2592,0.2592,0.2592,0.2651,0.2653,0,0,0,0,0,0,0.256,0.256,0.2601,0.2603,0.2578,0.2597,0.2599,0.2607,0.2602,0.2601,0.2611,0.261,0.2602,0.2601,0.26,0.2635,0.2592,0.2592,0.2592,0.2649,0.2651,0.2653,0,0,0,0,0,0,0.2558,0.2563,0.26,0.2584,0.2589,0.2599,0.2607,0.2608,0.2616,0.2608,0.2606,0.2619,0.2601,0.26,0.2615,0.2633,0.2592,0.2592,0.2648,0.265,0.2652,0.269,0,0,0,0,0,0,0.2557,0.2562,0.2568,0.2584,0.259,0.2624,0.2608,0.2609,0.2622,0.2621,0.2615,0.2612,0.2601,0.2616,0.2615,0.2632,0.2592,0.2645,0.2649,0.2652,0.2687,0.2693,0.2699,0,0,0,0,0,0.2554,0.2568,0.2568,0.2573,0.2597,0.2625,0.2629,0.2631,0.2623,0.2634,0.2634,0.2612,0.2635,0.2617,0.2616,0.2633,0.2644,0.2648,0.2651,0.2684,0.2692,0.2699,0,0,0,0,0,0,0.2545,0.2569,0.2569,0.2588,0.2609,0.2625,0.2637,0.2638,0.2647,0.2645,0.263,0.2629,0.2653,0.2643,0.2623,0.2663,0.2637,0.2641,0.2663,0.267,0.2676,0.2678,0.2592,0,0,0,0,0,0.2546,0.2562,0.2585,0.2601,0.2613,0.2626,0.2637,0.2642,0.2653,0.2656,0.2652,0.2655,0.2669,0.2668,0.2678,0.2693,0.2696,0.2706,0.2713,0.2718,0.2721,0.2749,0.2757,0.2665,0.2665,0.2665,0,0,0.2546,0.2563,0.257,0.26,0.2615,0.2638,0.2631,0.2656,0.2673,0.2653,0.2672,0.2679,0.2681,0.2705,0.2713,0.2694,0.2749,0.2722,0.2727,0.2727,0.2754,0.2762,0.277,0.2668,0.2667,0.2667,0,0,0.2559,0.2572,0.2591,0.2611,0.2642,0.2653,0.2663,0.2685,0.2694,0.2716,0.2714,0.2733,0.2741,0.2751,0.2755,0.2803,0.2788,0.2806,0.2828,0.2855,0.2863,0.2869,0.2893,0.2901,0.2801,0.2801,0.2801,0,0.2557,0.2581,0.2601,0.2627,0.2643,0.2661,0.2684,0.2702,0.2725,0.2737,0.2728,0.2767,0.2765,0.2799,0.2816,0.2816,0.2827,0.2795,0.2862,0.2868,0.2874,0.2897,0.2906,0.2803,0.2803,0.2803,0.2802,0,0.2584,0.2604,0.2621,0.2655,0.2678,0.2703,0.2731,0.2753,0.2762,0.2776,0.2816,0.2825,0.2843,0.2852,0.2845,0.2891,0.2886,0.2872,0.2838,0.2886,0.2907,0.2916,0.2806,0.2806,0.2805,0.2804,0,0,0.2574,0.2628,0.2632,0.2643,0.2693,0.2707,0.2751,0.2788,0.2809,0.2837,0.2866,0.2898,0.2903,0.291,0.2911,0.2932,0.2985,0.2918,0.2919,0.2934,0.3047,0.3044,0.3053,0.298,0.2982,0.2983,0.3047,0,0.2586,0.2625,0.2655,0.2685,0.2704,0.2739,0.2773,0.281,0.2839,0.2873,0.2901,0.2931,0.2925,0.2935,0.296,0.2983,0.3007,0.2969,0.3006,0.3007,0.2992,0.3063,0.2999,0.3051,0.3055,0.3057,0.3058,0,0.2598,0.262,0.2651,0.2689,0.2702,0.2722,0.2771,0.2808,0.2872,0.2896,0.294,0.2962,0.3012,0.2991,0.3058,0.3034,0.3046,0.3058,0.3061,0.3049,0.302,0.3004,0.3066,0.3029,0.307,0.3069,0.3068,0,0.2563,0.2612,0.2628,0.2643,0.2697,0.2713,0.2745,0.2809,0.2843,0.2913,0.2944,0.3004,0.3038,0.3071,0.3109,0.3084,0.318,0.3143,0.3155,0.3154,0.3103,0.3095,0.3124,0.3189,0.3189,0.3189,0.3188,0,0.2556,0.2566,0.2607,0.2613,0.2632,0.2683,0.2714,0.2763,0.2834,0.2876,0.2947,0.2996,0.306,0.3122,0.3137,0.3189,0.3205,0.318,0.3179,0.3116,0.3109,0.3075,0.3049,0.3191,0.319,0.319,0.319,0,0.2515,0.2547,0.256,0.2603,0.2615,0.2626,0.2687,0.2712,0.2795,0.2855,0.2882,0.3005,0.3096,0.3161,0.323,0.3229,0.3197,0.3276,0.3202,0.3192,0.3147,0.3125,0.2996,0.2905,0.3293,0.3294,0.3294,0,0.2498,0.2502,0.2534,0.2534,0.2549,0.2574,0.2594,0.2678,0.2716,0.2855,0.2884,0.3012,0.3093,0.3222,0.3261,0.3313,0.3214,0.3266,0.3204,0.3159,0.3134,0.297,0.289,0.3153,0.3152,0.3151,0.3151,0,0.2459,0.247,0.2478,0.2477,0.2485,0.2496,0.2537,0.2558,0.2665,0.2736,0.2843,0.2926,0.3096,0.3157,0.3256,0.3269,0.3134,0.3253,0.3225,0.3052,0.2856,0.2764,0.3096,0.3145,0.3145,0.3146,0.3146,0.3146,0.2422,0.2412,0.2417,0.2407,0.2414,0.2401,0.238,0.2443,0.2494,0.2578,0.273,0.2833,0.3036,0.3182,0.3176,0.3177,0.3092,0.3114,0.3101,0.2944,0.2822,0.3149,0.3185,0.3185,0.3186,0.3187,0.3187,0,0.2361,0.2353,0.2344,0.2317,0.2281,0.2316,0.2325,0.2295,0.2315,0.2463,0.2554,0.2759,0.2886,0.3023,0.3134,0.3054,0.2872,0.2987,0.2753,0.2688,0.3019,0.2983,0.2955,0.2955,0.2955,0.2955,0.2955,0.2955,0.2329,0.2291,0.2278,0.2187,0.2164,0.2083,0.2063,0.2057,0.2133,0.2224,0.2347,0.2492,0.282,0.3055,0.3065,0.298,0.2747,0.2636,0.2589,0.2876,0.2885,0.2895,0.2855,0.28,0.28,0.2143,0.2138,0.2135]},{"header":{"parameterUnit":"m.s-1","parameterCategory":2,"la1":30.2991,"la2":30.254,"lo1":-89.0895,"lo2":-89.0444,"dy":0.0017,"dx":0.0017,"nx":28,"ny":28,"refTime":"2025-04-04T09:00:00:Z","depth":"0","parameterNumber":3,"parameterNumberName":"V-component_of_CURRENTS"},"data":[0,0,0,0,0,0,0,0,0,0,0,0,0,0,0,0,0,0,0,0,0,0,0,0,0,0,0,0,0,0,0,0,0,0,0,0,0,0,0,0,0,0,0,0,0,0,0,0,0,0,0,0,0,0,0,0,0,0,0.0118,0.0118,0,0.0061,0.006,0.006,0.0019,0.0019,0.0019,0.0019,-0.0061,-0.0063,-0.0065,0,0,0,0,0,0,0,0,0,0,0,0,0,0.0145,0.0144,0.0118,0.0118,0.0117,0.0061,0.006,0.0059,0.0019,0.0019,0.0019,0.0019,-0.006,-0.0063,-0.0065,0,0,0,0,0,0,0,0,0,0,0,0,0,0.0113,0.0144,0.0118,0.0092,0.0089,0.0062,0.006,0.0059,0.002,0.0019,0.0019,0.0019,-0.006,-0.0063,-0.0066,-0.008,0,0,-0.0075,-0.0076,0,0,0,0,0,0,0,0,0.0115,0.0112,0.0097,0.0094,0.0091,0.0049,0.004,0.0012,0.002,0.0044,0.0019,0.0019,-0.0025,-0.0031,-0.0044,-0.0084,-0.0087,-0.0075,-0.0077,-0.0078,-0.0079,0,0,0,0,0,0,0,0.0117,0.0114,0.0094,0.0096,0.0093,0.0067,0.0062,0.0034,0.0009,0.0042,0.0039,0.0036,-0.0027,-0.0041,-0.0046,-0.0089,-0.0075,-0.0078,-0.0079,-0.0081,-0.014,-0.014,0,0,0,0,0,0,0.0131,0.0116,0.0096,0.0092,0.0105,0.0067,0.0062,0.0061,0.001,0.0003,0.0036,0.0034,-0.0035,-0.0042,-0.0049,-0.0053,-0.0078,-0.0081,-0.0083,-0.0141,-0.014,-0.014,0,0,0,0,0,0,0.0132,0.013,0.0098,0.0104,0.0099,0.0067,0.0066,0.006,0.005,0.0007,-0.0002,0.0033,-0.0036,-0.0045,-0.0067,-0.0057,-0.0082,-0.0085,-0.0141,-0.0141,-0.014,-0.0071,0,0,0,0,0,0,0.0133,0.0131,0.0134,0.0106,0.0099,0.009,0.0066,0.0059,0.0049,0.0046,0.0001,-0.0007,-0.0037,-0.0062,-0.0069,-0.0061,-0.0087,-0.0141,-0.0141,-0.014,-0.0074,-0.0069,-0.0064,0,0,0,0,0,0.0134,0.0145,0.0134,0.0132,0.0105,0.0091,0.0085,0.006,0.0049,0.0049,0.0019,-0.0005,-0.0065,-0.0064,-0.0073,-0.0066,-0.0141,-0.0141,-0.014,-0.0076,-0.007,-0.0064,0,0,0,0,0,0,0.0157,0.0142,0.0129,0.0134,0.0117,0.0085,0.0084,0.0066,0.0042,0.0041,-0.0003,-0.0012,-0.0029,-0.0057,-0.0055,-0.0083,-0.0107,-0.0108,-0.0055,-0.005,-0.0045,-0.0025,-0.009,0,0,0,0,0,0.0165,0.0169,0.0146,0.0149,0.0145,0.0115,0.0105,0.0091,0.0066,0.0055,0.0024,-0.0008,-0.0035,-0.0049,-0.0079,-0.0092,-0.0118,-0.0094,-0.0089,-0.0085,-0.0076,-0.0107,-0.0104,-0.0138,-0.0138,-0.0138,0,0,0.0175,0.0167,0.0168,0.0155,0.0139,0.0142,0.0108,0.0103,0.0105,0.0051,0.0043,0.0007,-0.0036,-0.0051,-0.0061,-0.0072,-0.0089,-0.0084,-0.008,-0.0073,-0.0106,-0.0103,-0.01,-0.0138,-0.0138,-0.0138,0,0,0.0203,0.019,0.0205,0.0196,0.0182,0.0165,0.0168,0.0141,0.0129,0.0114,0.0077,0.0052,0.0008,-0.0017,-0.0036,-0.0023,-0.0063,-0.0036,0.0006,-0.0024,-0.0022,-0.0019,-0.0044,-0.0044,-0.0032,-0.0032,-0.0031,0,0.0215,0.0231,0.0206,0.0219,0.022,0.0182,0.02,0.0181,0.015,0.0146,0.0122,0.0063,0.0025,0.0011,0.0013,-0.001,-0.0034,-0.001,-0.0017,-0.0015,-0.0014,-0.004,-0.0041,-0.0028,-0.0029,-0.0029,-0.0029,0,0.0255,0.0266,0.0276,0.028,0.0276,0.0285,0.0262,0.0255,0.0232,0.021,0.0187,0.0132,0.01,0.008,0.0049,0.004,0.0019,-0.0007,-0.0027,-0.0006,-0.0035,-0.0038,-0.0023,-0.0025,-0.0026,-0.0026,0,0,0.029,0.0303,0.0307,0.0323,0.0312,0.0316,0.0322,0.0317,0.0327,0.028,0.0284,0.0226,0.0192,0.0168,0.0123,0.0093,0.0076,0.0052,0.0048,0.0036,0.0013,0.0003,-0.0001,0.0047,0.0047,0.0047,-0.0008,0,0.0331,0.0374,0.0366,0.0405,0.0426,0.0399,0.0412,0.04,0.0375,0.0368,0.0306,0.0287,0.0227,0.0213,0.0174,0.0102,0.0071,0.0094,-0.0013,-0.0016,-0.002,-0.0004,0.0026,-0.0021,-0.0011,-0.0012,-0.0012,0,0.0378,0.0401,0.0448,0.0477,0.0485,0.0497,0.0512,0.0519,0.0494,0.0472,0.0435,0.0386,0.0339,0.0281,0.0174,0.0191,0.0111,0.0049,0.0045,0.0011,-0.003,-0.0043,-0.0027,-0.0153,-0.0017,-0.0017,-0.0016,0,0.0423,0.0461,0.0503,0.051,0.0533,0.0547,0.0558,0.055,0.0571,0.0536,0.0541,0.0467,0.0441,0.0331,0.0204,0.0188,0.0084,0.0044,-0.004,-0.0042,-0.0049,-0.005,-0.0159,-0.0031,-0.0031,-0.0031,-0.0031,0,0.0474,0.0508,0.0526,0.0548,0.0603,0.0598,0.0646,0.0641,0.0651,0.0686,0.0599,0.061,0.0451,0.0374,0.0239,0.0102,0.011,-0.0024,-0.0054,-0.0024,-0.0023,-0.016,-0.0248,-0.0033,-0.0033,-0.0032,-0.0032,0,0.0519,0.053,0.058,0.0611,0.0625,0.0664,0.0713,0.0751,0.0742,0.0784,0.0781,0.0724,0.0625,0.0462,0.0293,0.0163,-0.0064,-0.0035,0.0016,-0.0007,-0.0206,-0.029,-0.0457,-0.0544,-0.0135,-0.0135,-0.0136,0,0.0546,0.0577,0.0627,0.0662,0.0676,0.0728,0.0773,0.0792,0.084,0.0861,0.0896,0.0824,0.0795,0.0547,0.0307,0.008,-0.0075,-0.0058,-0.0088,-0.0205,-0.0321,-0.0395,-0.0462,-0.0072,-0.0072,-0.0072,-0.0072,0,0.0599,0.0611,0.0651,0.0721,0.0771,0.0838,0.0902,0.0957,0.099,0.1035,0.1087,0.1072,0.0849,0.0655,0.0339,0.0163,-0.0158,-0.0063,-0.02,-0.0291,-0.0363,-0.0463,-0.0049,-0.0071,-0.0071,-0.0071,-0.0071,-0.0071,0.0634,0.0669,0.0716,0.0784,0.0848,0.0935,0.0995,0.1082,0.1178,0.126,0.1244,0.1271,0.0984,0.0572,0.0302,-0.0131,-0.0171,-0.0254,-0.0348,-0.0413,-0.0494,-0.0073,-0.0121,-0.0122,-0.0122,-0.0122,-0.0122,0,0.0677,0.0712,0.0777,0.0853,0.0927,0.0956,0.1075,0.1148,0.1272,0.1388,0.1443,0.1378,0.0992,0.0584,0.001,-0.0325,-0.0487,-0.0521,-0.0617,-0.0676,-0.0302,-0.0294,-0.0362,-0.0362,-0.0362,-0.0362,-0.0362,-0.0362,0.0699,0.0758,0.0785,0.0899,0.0958,0.1058,0.1126,0.1253,0.1371,0.1529,0.1614,0.1661,0.1434,0.0325,-0.0397,-0.0588,-0.0855,-0.0917,-0.107,-0.0799,-0.0781,-0.0764,-0.0776,-0.0944,-0.0945,-0.1391,-0.1396,-0.1399]}],[{"header":{"parameterUnit":"m.s-1","parameterCategory":2,"la1":30.2991,"la2":30.254,"lo1":-89.0895,"lo2":-89.0444,"dy":0.0017,"dx":0.0017,"nx":28,"ny":28,"refTime":"2025-04-04T09:00:00:Z","depth":"2","parameterNumber":2,"parameterNumberName":"U-component_of_CURRENTS"},"data":[0,0,0,0,0,0,0,0,0,0,0,0,0,0,0,0,0,0,0,0,0,0,0,0,0,0,0,0,0,0,0,0,0,0,0,0,0,0,0,0,0,0,0,0,0,0,0,0,0,0,0,0,0,0,0,0,0,0,0.2545,0.2546,0,0.2573,0.2573,0.2573,0.257,0.2569,0.2569,0.2569,0.2561,0.2561,0.2561,0,0,0,0,0,0,0,0,0,0,0,0,0,0.2493,0.2494,0.2545,0.2546,0.2546,0.2573,0.2573,0.2573,0.257,0.2569,0.2569,0.2569,0.2561,0.2561,0.2561,0,0,0,0,0,0,0,0,0,0,0,0,0,0.2516,0.2494,0.2545,0.2549,0.255,0.2573,0.2573,0.2573,0.257,0.2569,0.2569,0.2569,0.2561,0.2561,0.2561,0.257,0,0,0.2562,0.2562,0,0,0,0,0,0,0,0,0.2514,0.2517,0.2548,0.2549,0.255,0.2569,0.2552,0.2571,0.257,0.256,0.2569,0.2568,0.2562,0.2562,0.2566,0.257,0.2569,0.2562,0.2562,0.2562,0.2562,0,0,0,0,0,0,0,0.2513,0.2516,0.2554,0.2549,0.255,0.2551,0.2554,0.2556,0.2561,0.2561,0.2561,0.2568,0.2562,0.2566,0.2566,0.2569,0.2562,0.2562,0.2562,0.2562,0.2624,0.2626,0,0,0,0,0,0,0.2514,0.2515,0.2553,0.2555,0.2533,0.2552,0.2555,0.2562,0.2562,0.2562,0.2568,0.2568,0.2566,0.2566,0.2565,0.2605,0.2562,0.2562,0.2562,0.2623,0.2625,0.2626,0,0,0,0,0,0,0.2513,0.2517,0.2552,0.2537,0.2542,0.2554,0.2561,0.2563,0.2574,0.2568,0.2567,0.2579,0.2566,0.2565,0.2584,0.2603,0.2562,0.2562,0.2621,0.2623,0.2626,0.2664,0,0,0,0,0,0,0.2511,0.2516,0.2522,0.2537,0.2543,0.2576,0.2562,0.2563,0.2579,0.2578,0.2577,0.2575,0.2565,0.2584,0.2584,0.2602,0.2562,0.2619,0.2622,0.2625,0.2661,0.2667,0.2673,0,0,0,0,0,0.2509,0.2521,0.2522,0.2527,0.255,0.2577,0.258,0.2585,0.258,0.2592,0.2594,0.2576,0.2603,0.2585,0.2585,0.2604,0.2617,0.2621,0.2625,0.2658,0.2666,0.2673,0,0,0,0,0,0,0.2501,0.2523,0.2524,0.2542,0.2562,0.2577,0.2591,0.2593,0.2604,0.2605,0.2593,0.2592,0.262,0.261,0.2591,0.2634,0.2609,0.2612,0.2634,0.2642,0.2648,0.2649,0.2562,0,0,0,0,0,0.2503,0.2518,0.2539,0.2554,0.2567,0.258,0.2591,0.2598,0.261,0.2615,0.2614,0.262,0.2634,0.2636,0.2647,0.2664,0.2667,0.2679,0.2686,0.2691,0.2694,0.2721,0.273,0.2638,0.2638,0.2638,0,0,0.2503,0.2519,0.2526,0.2554,0.2569,0.2592,0.2586,0.2612,0.2629,0.2612,0.2635,0.2644,0.2647,0.2673,0.2683,0.2665,0.2722,0.2696,0.27,0.27,0.2726,0.2735,0.2742,0.2641,0.264,0.264,0,0,0.2516,0.2529,0.2547,0.2567,0.2597,0.2608,0.2618,0.2641,0.2651,0.2676,0.2676,0.2697,0.2709,0.2719,0.2725,0.2773,0.2759,0.2778,0.2801,0.2827,0.2835,0.2841,0.2864,0.2872,0.2774,0.2774,0.2774,0,0.2515,0.2538,0.2557,0.2582,0.2598,0.2616,0.2639,0.2658,0.2682,0.2696,0.269,0.2732,0.2732,0.2768,0.2786,0.2786,0.2797,0.2768,0.2834,0.2841,0.2846,0.2868,0.2877,0.2776,0.2776,0.2775,0.2775,0,0.2541,0.2561,0.2577,0.261,0.2632,0.2657,0.2685,0.2709,0.2721,0.2736,0.2779,0.2789,0.281,0.2821,0.2815,0.2862,0.2857,0.2843,0.281,0.2858,0.2878,0.2886,0.2779,0.2778,0.2778,0.2777,0,0,0.2531,0.2582,0.2587,0.2599,0.2648,0.2662,0.2706,0.2743,0.2767,0.2797,0.2828,0.2863,0.287,0.2878,0.2881,0.2902,0.2955,0.289,0.2891,0.2905,0.3017,0.3006,0.3014,0.2952,0.2954,0.2955,0.3016,0,0.2542,0.258,0.2609,0.264,0.2658,0.2694,0.2729,0.2767,0.2798,0.2834,0.2864,0.2896,0.2892,0.2905,0.293,0.2953,0.2978,0.294,0.2975,0.2977,0.2955,0.3023,0.2778,0.2812,0.3024,0.3025,0.3026,0,0.2553,0.2575,0.2606,0.2645,0.2658,0.268,0.273,0.2768,0.2833,0.2859,0.2904,0.2928,0.2979,0.296,0.3026,0.3003,0.3016,0.3028,0.303,0.3011,0.2982,0.2799,0.2818,0.3039,0.3038,0.3037,0.3036,0,0.2519,0.2568,0.2586,0.2601,0.2655,0.2674,0.2707,0.2771,0.2806,0.2878,0.291,0.2971,0.3006,0.3038,0.3077,0.3053,0.3145,0.311,0.3114,0.3113,0.2907,0.2886,0.3155,0.3155,0.3155,0.3155,0.3154,0,0.2512,0.2524,0.2567,0.2574,0.2596,0.2647,0.2681,0.2731,0.2803,0.2845,0.2917,0.2964,0.3029,0.3088,0.3102,0.3149,0.3169,0.3138,0.3137,0.2916,0.2897,0.3088,0.308,0.3157,0.3156,0.3156,0.3156,0,0.2473,0.2505,0.2521,0.2567,0.258,0.2594,0.2658,0.2684,0.2768,0.2828,0.2856,0.2974,0.3061,0.3124,0.3191,0.3186,0.3223,0.3228,0.2973,0.2942,0.3163,0.3156,0.3235,0.3236,0.3236,0.3236,0.3237,0,0.2456,0.2461,0.2497,0.25,0.2517,0.2546,0.2568,0.2653,0.2692,0.2828,0.2856,0.2979,0.305,0.317,0.318,0.322,0.3256,0.3017,0.2931,0.3185,0.3175,0.3168,0.3161,0.2667,0.2663,0.2659,0.2656,0,0.2419,0.2432,0.2442,0.2446,0.2458,0.2471,0.2515,0.2536,0.2642,0.2709,0.2809,0.2883,0.3018,0.2972,0.3051,0.3033,0.2992,0.2947,0.327,0.2703,0.2659,0.2647,0.2656,0.2624,0.2627,0.2629,0.2631,0.2632,0.2384,0.2376,0.2385,0.238,0.2391,0.238,0.2361,0.2419,0.2466,0.2527,0.2673,0.2705,0.2778,0.2784,0.2724,0.2679,0.2886,0.2749,0.2755,0.2766,0.2708,0.2669,0.2624,0.2627,0.2629,0.2632,0.2634,0,0.2324,0.2321,0.2316,0.2294,0.226,0.2299,0.2309,0.2268,0.2276,0.237,0.2434,0.2296,0.23,0.2359,0.2257,0.2297,0.2214,0.2194,0.205,0.2088,0.2121,0.2022,0.1759,0.1756,0.1753,0.175,0,0,0.2293,0.2258,0.2246,0.2163,0.2147,0.2067,0.2047,0.2017,0.2046,0.2019,0.2022,0.2188,0.2311,0.1994,0.1981,0.1848,0.1935,0.1773,0.2486,0.2355,0.2383,0.247,0.2368,0,0,0,0,0]},{"header":{"parameterUnit":"m.s-1","parameterCategory":2,"la1":30.2991,"la2":30.254,"lo1":-89.0895,"lo2":-89.0444,"dy":0.0017,"dx":0.0017,"nx":28,"ny":28,"refTime":"2025-04-04T09:00:00:Z","depth":"2","parameterNumber":3,"parameterNumberName":"V-component_of_CURRENTS"},"data":[0,0,0,0,0,0,0,0,0,0,0,0,0,0,0,0,0,0,0,0,0,0,0,0,0,0,0,0,0,0,0,0,0,0,0,0,0,0,0,0,0,0,0,0,0,0,0,0,0,0,0,0,0,0,0,0,0,0,0.0054,0.0054,0,-0.0001,-0.0002,-0.0003,-0.0043,-0.0043,-0.0043,-0.0043,-0.0119,-0.0121,-0.0123,0,0,0,0,0,0,0,0,0,0,0,0,0,0.008,0.0079,0.0054,0.0054,0.0053,-0.0001,-0.0002,-0.0003,-0.0043,-0.0043,-0.0043,-0.0043,-0.0119,-0.0121,-0.0123,0,0,0,0,0,0,0,0,0,0,0,0,0,0.0049,0.0079,0.0055,0.0029,0.0026,-0.0001,-0.0002,-0.0003,-0.0043,-0.0043,-0.0043,-0.0043,-0.0118,-0.0121,-0.0123,-0.0137,0,0,-0.0132,-0.0133,0,0,0,0,0,0,0,0,0.0051,0.0048,0.0033,0.003,0.0027,-0.0014,-0.0021,-0.0048,-0.0043,-0.0019,-0.0043,-0.0044,-0.0084,-0.009,-0.0103,-0.014,-0.0144,-0.0132,-0.0134,-0.0135,-0.0136,0,0,0,0,0,0,0,0.0053,0.005,0.003,0.0032,0.0029,0.0004,-0.0001,-0.0027,-0.0052,-0.0021,-0.0023,-0.0026,-0.0086,-0.01,-0.0105,-0.0145,-0.0132,-0.0135,-0.0137,-0.0138,-0.0192,-0.0192,0,0,0,0,0,0,0.0067,0.0052,0.0032,0.0029,0.0041,0.0004,-0.0001,-0.0002,-0.0051,-0.0058,-0.0026,-0.0028,-0.0095,-0.0101,-0.0107,-0.0109,-0.0135,-0.0138,-0.014,-0.0192,-0.0192,-0.0192,0,0,0,0,0,0,0.0067,0.0066,0.0034,0.004,0.0035,0.0004,0.0003,-0.0003,-0.0012,-0.0054,-0.0062,-0.0028,-0.0095,-0.0103,-0.0123,-0.0113,-0.0139,-0.0142,-0.0193,-0.0192,-0.0192,-0.0123,0,0,0,0,0,0,0.0068,0.0066,0.007,0.0042,0.0035,0.0028,0.0004,-0.0004,-0.0013,-0.0016,-0.0059,-0.0067,-0.0096,-0.0119,-0.0126,-0.0117,-0.0144,-0.0193,-0.0192,-0.0192,-0.0126,-0.012,-0.0116,0,0,0,0,0,0.007,0.0081,0.007,0.0068,0.0042,0.0029,0.0023,-0.0002,-0.0013,-0.0012,-0.0041,-0.0065,-0.0121,-0.0121,-0.0129,-0.0121,-0.0193,-0.0193,-0.0192,-0.0128,-0.0121,-0.0116,0,0,0,0,0,0,0.0094,0.0078,0.0065,0.0071,0.0054,0.0023,0.0022,0.0005,-0.0018,-0.0019,-0.0062,-0.0071,-0.0086,-0.0113,-0.0112,-0.0136,-0.0161,-0.0162,-0.0109,-0.0104,-0.0099,-0.0081,-0.0146,0,0,0,0,0,0.0101,0.0106,0.0083,0.0087,0.0083,0.0053,0.0045,0.003,0.0006,-0.0004,-0.0034,-0.0066,-0.0091,-0.0104,-0.0132,-0.0144,-0.0171,-0.0145,-0.014,-0.0136,-0.0127,-0.016,-0.0157,-0.019,-0.019,-0.019,0,0,0.0111,0.0103,0.0105,0.0093,0.0077,0.0081,0.0047,0.0043,0.0045,-0.0008,-0.0015,-0.005,-0.0091,-0.0104,-0.0113,-0.0125,-0.014,-0.0135,-0.0131,-0.0125,-0.0159,-0.0156,-0.0153,-0.019,-0.019,-0.019,0,0,0.014,0.0128,0.0143,0.0135,0.0121,0.0105,0.0108,0.0082,0.007,0.0057,0.0021,-0.0004,-0.0045,-0.007,-0.0089,-0.0074,-0.0114,-0.0085,-0.0044,-0.0076,-0.0073,-0.0071,-0.0096,-0.0097,-0.0081,-0.0081,-0.0081,0,0.0153,0.0169,0.0145,0.0158,0.0159,0.0122,0.014,0.0122,0.0093,0.0088,0.0065,0.0008,-0.0027,-0.0042,-0.0039,-0.0061,-0.0085,-0.0061,-0.0068,-0.0067,-0.0066,-0.0092,-0.0094,-0.0078,-0.0078,-0.0079,-0.0079,0,0.0193,0.0205,0.0214,0.0219,0.0215,0.0225,0.0202,0.0196,0.0174,0.0152,0.013,0.0077,0.0046,0.0027,-0.0002,-0.0011,-0.0032,-0.0058,-0.0079,-0.0058,-0.0087,-0.009,-0.0073,-0.0074,-0.0075,-0.0076,0,0,0.0228,0.0241,0.0245,0.026,0.0251,0.0255,0.0262,0.0256,0.0266,0.0221,0.0224,0.0169,0.0136,0.0113,0.007,0.0039,0.0022,-0.0001,-0.0004,-0.0018,-0.0043,-0.0054,-0.0058,-0.0006,-0.0006,-0.0007,-0.0064,0,0.0268,0.031,0.0303,0.0341,0.0362,0.0337,0.0349,0.0338,0.0314,0.0305,0.0246,0.0227,0.017,0.0157,0.0118,0.0047,0.0016,0.004,-0.0068,-0.0071,-0.0077,-0.0061,-0.0046,-0.0095,-0.0067,-0.0068,-0.0068,0,0.0313,0.0336,0.0383,0.0411,0.0419,0.0431,0.0445,0.0452,0.0427,0.0405,0.0369,0.0322,0.0275,0.022,0.0114,0.0132,0.0054,-0.0008,-0.0012,-0.0046,-0.0087,-0.0114,-0.0103,-0.0074,-0.0074,-0.0073,-0.0073,0,0.0357,0.0395,0.0436,0.0443,0.0465,0.048,0.0491,0.0482,0.0502,0.0468,0.0472,0.0399,0.0372,0.0265,0.0141,0.0127,0.0021,-0.0017,-0.01,-0.0102,-0.0122,-0.0125,-0.0093,-0.0092,-0.0092,-0.0092,-0.0092,0,0.0406,0.0439,0.0458,0.048,0.0534,0.0529,0.0576,0.0571,0.0579,0.061,0.0528,0.0536,0.0382,0.0304,0.0173,0.0037,0.0044,-0.0086,-0.0115,-0.0097,-0.0097,-0.0108,-0.0109,-0.0094,-0.0094,-0.0093,-0.0093,0,0.0448,0.046,0.051,0.0541,0.0555,0.0593,0.064,0.0676,0.0668,0.0706,0.0704,0.0645,0.0545,0.0387,0.022,0.0093,-0.0048,-0.0102,-0.0065,-0.0089,-0.016,-0.0156,-0.0199,-0.02,-0.0201,-0.0201,-0.0202,0,0.0475,0.0504,0.0555,0.0589,0.0604,0.0655,0.0698,0.0716,0.0761,0.0779,0.081,0.0737,0.0703,0.0457,0.0222,-0.0001,-0.0037,-0.0142,-0.0171,-0.0145,-0.017,-0.0166,-0.0162,-0.0173,-0.0173,-0.0173,-0.0173,0,0.0524,0.0538,0.0576,0.0646,0.0695,0.076,0.0821,0.0873,0.0903,0.0943,0.0986,0.0967,0.0743,0.0531,0.0222,0.0064,-0.0107,-0.0152,-0.0136,-0.0143,-0.0123,-0.0146,-0.0143,-0.0175,-0.0174,-0.0174,-0.0174,-0.0174,0.0558,0.0591,0.0638,0.0705,0.0769,0.0851,0.0909,0.0985,0.1072,0.1126,0.1114,0.1081,0.084,0.0455,0.0184,-0.0112,-0.0098,-0.0212,-0.0211,-0.0209,-0.0191,-0.0173,-0.0229,-0.023,-0.023,-0.023,-0.023,0,0.0597,0.0633,0.0696,0.0771,0.084,0.0873,0.0984,0.1036,0.1142,0.1202,0.1234,0.1002,0.0779,0.0494,0.0064,-0.0186,-0.0213,-0.0274,-0.025,-0.0247,-0.0244,-0.0227,-0.0276,-0.0277,-0.0278,-0.0279,0,0,0.0617,0.0673,0.0699,0.0807,0.0869,0.0957,0.1022,0.1106,0.117,0.1216,0.121,0.1189,0.0868,0.0549,0.021,-0.0036,-0.009,-0.0091,-0.0027,0.0044,0.0049,-0.0181,-0.0147,0,0,0,0,0]}],[{"header":{"parameterUnit":"m.s-1","parameterCategory":2,"la1":30.2991,"la2":30.254,"lo1":-89.0895,"lo2":-89.0444,"dy":0.0017,"dx":0.0017,"nx":28,"ny":28,"refTime":"2025-04-04T09:00:00:Z","depth":"4","parameterNumber":2,"parameterNumberName":"U-component_of_CURRENTS"},"data":[0,0,0,0,0,0,0,0,0,0,0,0,0,0,0,0,0,0,0,0,0,0,0,0,0,0,0,0,0,0,0,0,0,0,0,0,0,0,0,0,0,0,0,0,0,0,0,0,0,0,0,0,0,0,0,0,0,0,0.1668,0.1669,0,0.1728,0.1729,0.173,0.1785,0.1785,0.1786,0.1787,0.1864,0.1866,0.1867,0,0,0,0,0,0,0,0,0,0,0,0,0,0.1603,0.1604,0.1668,0.1669,0.167,0.1728,0.1729,0.173,0.1784,0.1785,0.1786,0.1787,0.1864,0.1866,0.1867,0,0,0,0,0,0,0,0,0,0,0,0,0,0.1643,0.1604,0.1668,0.1705,0.1709,0.1728,0.1729,0.173,0.1784,0.1785,0.1787,0.1788,0.1863,0.1865,0.1867,0.1857,0,0,0.1874,0.1874,0,0,0,0,0,0,0,0,0.164,0.1645,0.1699,0.1703,0.1707,0.1751,0.1735,0.1774,0.1784,0.1755,0.1787,0.1788,0.1828,0.1833,0.184,0.186,0.1864,0.1874,0.1875,0.1876,0.1876,0,0,0,0,0,0,0,0.1637,0.1643,0.1691,0.17,0.1705,0.172,0.1726,0.1742,0.1783,0.1757,0.1762,0.177,0.1831,0.1838,0.1842,0.1865,0.1874,0.1875,0.1877,0.1878,0.1997,0.1998,0,0,0,0,0,0,0.1631,0.164,0.1689,0.1693,0.1677,0.172,0.1727,0.1735,0.1783,0.1792,0.1769,0.1772,0.1834,0.184,0.1845,0.1937,0.1876,0.1878,0.1879,0.1995,0.1997,0.1999,0,0,0,0,0,0,0.1629,0.1635,0.1687,0.1669,0.1677,0.172,0.1728,0.1736,0.178,0.1792,0.1801,0.181,0.1835,0.1842,0.1896,0.1936,0.1879,0.188,0.1992,0.1995,0.1998,0.2054,0,0,0,0,0,0,0.1627,0.1634,0.1654,0.1668,0.1677,0.1723,0.1727,0.1736,0.1782,0.1788,0.1829,0.1836,0.1836,0.1893,0.1898,0.1938,0.1882,0.199,0.1994,0.1997,0.205,0.2059,0.2066,0,0,0,0,0,0.1625,0.1642,0.1655,0.1662,0.1699,0.1724,0.1731,0.1764,0.1783,0.1808,0.1841,0.1836,0.192,0.1896,0.1902,0.1943,0.1988,0.1993,0.1997,0.2046,0.2057,0.2066,0,0,0,0,0,0,0.1627,0.165,0.1664,0.169,0.1718,0.1735,0.1766,0.1784,0.1828,0.1847,0.1857,0.1865,0.1929,0.1929,0.1902,0.199,0.1955,0.1961,0.1991,0.2001,0.2009,0.2009,0.1884,0,0,0,0,0,0.1635,0.1658,0.1679,0.1705,0.1722,0.175,0.1773,0.1795,0.1826,0.1849,0.1878,0.1912,0.1943,0.1968,0.1993,0.2037,0.2037,0.2069,0.2077,0.2084,0.2089,0.2124,0.2136,0.2014,0.2014,0.2013,0,0,0.1644,0.1661,0.1676,0.1709,0.1735,0.1763,0.1768,0.1813,0.1847,0.1849,0.1919,0.1943,0.1963,0.2016,0.2044,0.2026,0.2121,0.209,0.2095,0.2097,0.213,0.2142,0.2152,0.2017,0.2016,0.2016,0,0,0.1661,0.1691,0.1712,0.1738,0.1783,0.1799,0.1819,0.1859,0.1895,0.195,0.1967,0.2017,0.2064,0.2087,0.2101,0.2169,0.2163,0.2187,0.2229,0.2263,0.2273,0.2282,0.2299,0.2309,0.2191,0.2191,0.2191,0,0.1675,0.17,0.1725,0.1753,0.1782,0.1818,0.1851,0.1886,0.1942,0.1975,0.1985,0.2076,0.2095,0.2155,0.2184,0.2188,0.2202,0.2187,0.2273,0.2281,0.2289,0.2305,0.2315,0.2194,0.2194,0.2193,0.2193,0,0.1694,0.1731,0.1751,0.1796,0.183,0.1869,0.1912,0.1962,0.2008,0.204,0.2125,0.2155,0.2208,0.2227,0.2228,0.2301,0.2292,0.2277,0.2243,0.2305,0.2317,0.2327,0.2199,0.2197,0.2196,0.2196,0,0,0.1678,0.175,0.1761,0.1791,0.186,0.1884,0.1954,0.2015,0.2066,0.2132,0.2197,0.2263,0.2289,0.2308,0.2325,0.2359,0.2428,0.2351,0.2351,0.236,0.2503,0.2354,0.2349,0.2434,0.2436,0.2438,0.2489,0,0.1691,0.1742,0.1781,0.1844,0.1873,0.1936,0.1994,0.206,0.2121,0.2192,0.2247,0.2314,0.2317,0.2355,0.2393,0.2422,0.2456,0.2415,0.2449,0.245,0.2303,0.2356,0.2444,0.2496,0.2498,0.2499,0.2501,0,0.1688,0.1726,0.1786,0.1868,0.189,0.194,0.2038,0.2096,0.2198,0.2249,0.2326,0.2367,0.2447,0.2432,0.2516,0.2494,0.2509,0.2521,0.2523,0.2368,0.2317,0.2423,0.2517,0.2516,0.2515,0.2514,0.2513,0,0.1643,0.1727,0.1777,0.1806,0.1904,0.1957,0.2019,0.2121,0.2178,0.2294,0.2345,0.2435,0.2494,0.2535,0.2572,0.2557,0.2645,0.2617,0.2495,0.2485,0.2578,0.2568,0.2671,0.2671,0.2671,0.2671,0.267,0,0.1619,0.1664,0.1767,0.1793,0.1865,0.1946,0.2032,0.2107,0.2216,0.2277,0.2377,0.2427,0.2527,0.2584,0.2599,0.2574,0.2669,0.2508,0.249,0.2601,0.2593,0.2584,0.2574,0.2672,0.2672,0.2672,0.2671,0,0.1558,0.1627,0.169,0.1805,0.1846,0.1901,0.2032,0.2083,0.2202,0.2284,0.2327,0.2449,0.2517,0.2588,0.2657,0.2592,0.2592,0.256,0.2681,0.2668,0.2401,0.2393,0.2416,0.2411,0.2407,0.2403,0.2401,0,0.1526,0.1554,0.1683,0.1724,0.1784,0.1877,0.1936,0.2065,0.2116,0.2271,0.2295,0.2412,0.2476,0.2447,0.2538,0.2552,0.2528,0.2505,0.2442,0.2396,0.2377,0.2375,0.2373,0.2394,0.2393,0.2392,0.2391,0,0.1467,0.1531,0.1584,0.1665,0.1737,0.1798,0.1893,0.1911,0.2049,0.2176,0.2201,0.2231,0.2303,0.2347,0.2381,0.2388,0.2503,0.2462,0.2469,0.241,0.237,0.2355,0.2357,0.2377,0.2379,0.238,0.2381,0,0.143,0.1451,0.153,0.1587,0.1669,0.1689,0.175,0.1799,0.186,0.2023,0.2028,0.215,0.2272,0.2263,0.2295,0.2291,0.2253,0.217,0.2192,0.2209,0.2119,0.2037,0.193,0,0,0,0,0,0.138,0.1391,0.1441,0.149,0.1563,0.1608,0.1706,0.1766,0.1894,0.1859,0.1934,0.1985,0.202,0.2091,0.2047,0.222,0.2273,0.2159,0.2192,0.2299,0.2315,0.2229,0,0,0,0,0,0,0.1347,0.1393,0.1404,0.1394,0.141,0.1469,0.1523,0.1609,0.1595,0.1733,0.1764,0.1872,0.1944,0.2028,0.2012,0.2035,0.2014,0.2245,0.224,0.2289,0.2304,0.2317,0.2234,0,0,0,0,0]},{"header":{"parameterUnit":"m.s-1","parameterCategory":2,"la1":30.2991,"la2":30.254,"lo1":-89.0895,"lo2":-89.0444,"dy":0.0017,"dx":0.0017,"nx":28,"ny":28,"refTime":"2025-04-04T09:00:00:Z","depth":"4","parameterNumber":3,"parameterNumberName":"V-component_of_CURRENTS"},"data":[0,0,0,0,0,0,0,0,0,0,0,0,0,0,0,0,0,0,0,0,0,0,0,0,0,0,0,0,0,0,0,0,0,0,0,0,0,0,0,0,0,0,0,0,0,0,0,0,0,0,0,0,0,0,0,0,0,0,0.0014,0.0014,0,-0.0024,-0.0025,-0.0025,-0.0062,-0.0062,-0.0063,-0.0063,-0.012,-0.0121,-0.0122,0,0,0,0,0,0,0,0,0,0,0,0,0,0.0025,0.0025,0.0014,0.0014,0.0013,-0.0024,-0.0025,-0.0026,-0.0062,-0.0062,-0.0063,-0.0063,-0.012,-0.0121,-0.0123,0,0,0,0,0,0,0,0,0,0,0,0,0,0.0006,0.0025,0.0014,-0.0008,-0.0011,-0.0024,-0.0025,-0.0026,-0.0062,-0.0062,-0.0063,-0.0063,-0.0119,-0.0121,-0.0123,-0.0124,0,0,-0.0128,-0.0129,0,0,0,0,0,0,0,0,0.0007,0.0005,-0.0005,-0.0007,-0.0009,-0.0038,-0.0042,-0.0059,-0.0062,-0.0044,-0.0063,-0.0064,-0.0093,-0.0097,-0.0105,-0.0127,-0.0129,-0.0128,-0.013,-0.013,-0.0131,0,0,0,0,0,0,0,0.0008,0.0006,-0.0003,-0.0005,-0.0008,-0.0027,-0.003,-0.0045,-0.0067,-0.0045,-0.0048,-0.005,-0.0095,-0.0103,-0.0106,-0.013,-0.0128,-0.013,-0.0131,-0.0132,-0.0162,-0.0162,0,0,0,0,0,0,0.0018,0.0008,-0.0001,-0.0004,-0.0001,-0.0026,-0.003,-0.0029,-0.0066,-0.0072,-0.0049,-0.0051,-0.01,-0.0104,-0.0109,-0.0106,-0.013,-0.0132,-0.0133,-0.0162,-0.0162,-0.0162,0,0,0,0,0,0,0.0019,0.0018,0.0,0.0002,-0.0001,-0.0026,-0.0025,-0.003,-0.0037,-0.0068,-0.0075,-0.0051,-0.01,-0.0106,-0.0118,-0.0109,-0.0133,-0.0135,-0.0163,-0.0162,-0.0162,-0.0104,0,0,0,0,0,0,0.0019,0.0018,0.0022,0.0003,-0.0001,-0.0,-0.0024,-0.003,-0.0037,-0.004,-0.0072,-0.0078,-0.0101,-0.0115,-0.012,-0.0112,-0.0136,-0.0163,-0.0162,-0.0162,-0.0107,-0.0102,-0.0098,0,0,0,0,0,0.002,0.0032,0.0022,0.0021,0.0005,0.0,-0.0003,-0.0024,-0.0036,-0.0034,-0.0057,-0.0077,-0.0116,-0.0116,-0.0122,-0.0114,-0.0163,-0.0163,-0.0162,-0.0109,-0.0103,-0.0098,0,0,0,0,0,0,0.0038,0.0029,0.0018,0.0026,0.0016,-0.0005,-0.0004,-0.0019,-0.0035,-0.0039,-0.0072,-0.0079,-0.0087,-0.0108,-0.0108,-0.0122,-0.0143,-0.0144,-0.0101,-0.0096,-0.0092,-0.008,-0.0137,0,0,0,0,0,0.0045,0.0051,0.0036,0.0042,0.004,0.0018,0.0013,0.0001,-0.0016,-0.0024,-0.0047,-0.0071,-0.0089,-0.0098,-0.0118,-0.0121,-0.0148,-0.0121,-0.0117,-0.0113,-0.0108,-0.0141,-0.0139,-0.0159,-0.0159,-0.0159,0,0,0.0054,0.0049,0.0052,0.0046,0.0036,0.0042,0.0014,0.0013,0.0016,-0.0027,-0.003,-0.0056,-0.0087,-0.0094,-0.0099,-0.0109,-0.0121,-0.0112,-0.0109,-0.0106,-0.014,-0.0138,-0.0137,-0.0159,-0.0159,-0.0159,0,0,0.0079,0.0071,0.0085,0.0081,0.0073,0.0062,0.0065,0.0047,0.0037,0.0032,0.0001,-0.0018,-0.0044,-0.0064,-0.0077,-0.0061,-0.0098,-0.0069,-0.0036,-0.0068,-0.0066,-0.0065,-0.0091,-0.0093,-0.0065,-0.0065,-0.0065,0,0.0089,0.0103,0.0088,0.01,0.0103,0.0075,0.0092,0.008,0.006,0.0056,0.0039,-0.0003,-0.0029,-0.0039,-0.0035,-0.005,-0.0074,-0.0051,-0.0061,-0.0061,-0.0061,-0.0088,-0.0091,-0.0062,-0.0063,-0.0063,-0.0063,0,0.0122,0.0134,0.0143,0.015,0.0151,0.016,0.0147,0.0144,0.0127,0.0111,0.0094,0.0055,0.0031,0.0019,-0.0003,-0.0013,-0.0032,-0.0052,-0.0072,-0.0056,-0.0085,-0.0089,-0.0058,-0.0059,-0.006,-0.0061,0,0,0.0145,0.0164,0.0167,0.0179,0.0179,0.0184,0.0194,0.0193,0.0198,0.0168,0.0168,0.0131,0.0103,0.0086,0.0052,0.0024,0.0004,-0.0009,-0.0012,-0.0029,-0.0063,-0.0067,-0.0072,-0.0021,-0.0021,-0.0021,-0.0082,0,0.0175,0.0212,0.0212,0.0246,0.0263,0.0248,0.0263,0.0256,0.0239,0.0232,0.0186,0.0173,0.0131,0.0121,0.0086,0.0026,-0.0004,0.0023,-0.0081,-0.0084,-0.0086,-0.0076,-0.0023,-0.0085,-0.0086,-0.0087,-0.0087,0,0.0208,0.0228,0.0269,0.0296,0.0303,0.0319,0.0333,0.0342,0.0324,0.0308,0.028,0.0243,0.0204,0.0163,0.0068,0.0087,0.0019,-0.0034,-0.0038,-0.0064,-0.0095,-0.0108,-0.0095,-0.0094,-0.0094,-0.0093,-0.0093,0,0.023,0.0268,0.0303,0.0311,0.0338,0.0353,0.0367,0.0364,0.0381,0.0357,0.0359,0.0298,0.0276,0.0183,0.008,0.0072,-0.003,-0.0057,-0.0126,-0.0127,-0.0131,-0.0132,-0.0128,-0.0128,-0.0128,-0.0128,-0.0128,0,0.0259,0.0287,0.0317,0.0335,0.0381,0.0387,0.0427,0.0427,0.0438,0.0461,0.0402,0.04,0.0279,0.0209,0.01,-0.0018,-0.0017,-0.0116,-0.0142,-0.0105,-0.0102,-0.0134,-0.0133,-0.013,-0.013,-0.0129,-0.0129,0,0.0276,0.0296,0.0338,0.0376,0.0393,0.0425,0.0476,0.0504,0.0506,0.0533,0.0533,0.048,0.0388,0.0263,0.0116,0.0021,-0.01,-0.0146,-0.0085,-0.0107,-0.0182,-0.0178,-0.0227,-0.0227,-0.0228,-0.0228,-0.0229,0,0.0287,0.0312,0.0368,0.0399,0.0418,0.0468,0.0506,0.0533,0.0564,0.0581,0.0597,0.0533,0.0475,0.0278,0.0132,-0.0069,-0.0106,-0.0173,-0.019,-0.0172,-0.0192,-0.0187,-0.0183,-0.023,-0.023,-0.023,-0.023,0,0.0307,0.0327,0.0361,0.0426,0.0473,0.053,0.0584,0.0615,0.0648,0.0657,0.0652,0.0555,0.0453,0.0291,0.0139,-0.0011,-0.0132,-0.0179,-0.018,-0.0196,-0.0176,-0.0194,-0.019,-0.0232,-0.0232,-0.0231,-0.0231,0,0.0319,0.0344,0.0389,0.0445,0.051,0.0568,0.0599,0.0641,0.0676,0.0696,0.0693,0.0584,0.0527,0.0321,0.0179,0.0036,-0.0013,-0.0077,-0.0084,-0.0084,-0.003,0.0017,0.0003,0,0,0,0,0,0.0329,0.0353,0.0405,0.0464,0.053,0.0567,0.0642,0.0668,0.0704,0.0709,0.0705,0.0611,0.0416,0.0338,0.0194,0.0144,-0.0054,-0.0033,-0.0135,-0.0242,-0.024,-0.0203,0,0,0,0,0,0,0.0333,0.0377,0.0398,0.0469,0.0511,0.0584,0.0632,0.0661,0.0667,0.0686,0.0594,0.0557,0.0373,0.0498,0.0186,0.0144,0.0054,-0.0116,-0.012,-0.0243,-0.0241,-0.024,-0.0201,0,0,0,0,0]}]]